Weather History for Holland, MI

Change the Weather History Date:

Friday, May 3, 2013

  Actual Average Record
Temperature  
Mean Temperature 63 °F 54 °F  
Max Temperature 78 °F 65 °F 87 °F (1959)
Min Temperature 48 °F 45 °F 25 °F (1978)
Degree Days  
Heating Degree Days 2 11  
Month to date heating degree days 2 33  
Since 1 July heating degree days 5805 5912  
Cooling Degree Days 0 0  
Month to date cooling degree days 10 0  
Year to date cooling degree days 16 4  
Growing Degree Days 12 (Base 50)    
Moisture  
Dew Point 52 °F    
Average Humidity 67    
Maximum Humidity 86    
Minimum Humidity 47    
Precipitation  
Precipitation 0.07 in 0.12 in 0.62 in (1979)
Month to date precipitation 0.07 0.35  
Year to date precipitation 15.91 9.76  
Sea Level Pressure  
Sea Level Pressure 30.04 in    
Wind  
Wind Speed 5 mph (NNE)    
Max Wind Speed 15 mph    
Max Gust Speed 18 mph    
Visibility 9 miles    
Events Rain    
T = Trace of Precipitation, MM = Missing Value Source: NWS Daily Summary

Daily Weather History Graph

Daily Weather History Graph

Search for Another Location

Airport:

Trip Planner

Search our weather history database for the weather conditions in past years. The results will help you decide how hot, cold, wet, or windy it might be!

Date:

Astronomy

May. 03, 2013 Rise Set
Actual Time 6:35 AM EDT 8:47 PM EDT
Civil Twilight 6:04 AM EDT 9:18 PM EDT
Nautical Twilight 5:26 AM EDT 9:57 PM EDT
Astronomical Twilight 4:44 AM EDT 10:39 PM EDT
Moon 3:08 AM EDT (5/3) 2:33 PM EDT (5/3)
Length of Visible Light 15h 13m
Length of Day
14h 11m
Last Quarter, 37% of the Moon is Illuminated
May 3
Last Quarter
May 9
New
May 18
First Quarter
May 25
Full
May 31
Last Quarter

Hourly Weather History & Observations

Time (EDT) Temp. Dew Point Humidity Pressure Visibility Wind Dir Wind Speed Gust Speed Precip Events Conditions
12:53 AM 51.1 °F 45.0 °F 80% 30.12 in 10.0 mi WNW 4.6 mph - N/A   Clear
1:53 AM 48.9 °F 44.1 °F 83% 30.10 in 10.0 mi WNW 3.5 mph - N/A   Clear
2:53 AM 48.9 °F 44.1 °F 83% 30.09 in 10.0 mi Calm Calm - N/A   Clear
4:53 AM 53.1 °F 48.0 °F 83% 30.07 in 10.0 mi NNE 4.6 mph - N/A   Mostly Cloudy
5:53 AM 54.0 °F 48.0 °F 80% 30.06 in 10.0 mi NE 3.5 mph - N/A   Mostly Cloudy
6:53 AM 55.0 °F 50.0 °F 83% 30.06 in 10.0 mi ENE 4.6 mph - N/A   Clear
7:53 AM 57.9 °F 51.1 °F 78% 30.06 in 10.0 mi East 5.8 mph - N/A   Mostly Cloudy
8:53 AM 62.1 °F 53.1 °F 72% 30.06 in 10.0 mi East 4.6 mph - N/A   Partly Cloudy
9:53 AM 68.0 °F 55.0 °F 63% 30.05 in 10.0 mi ESE 8.1 mph - N/A   Scattered Clouds
10:53 AM 71.1 °F 55.0 °F 57% 30.05 in 10.0 mi SSE 4.6 mph - N/A   Overcast
11:53 AM 75.0 °F 55.0 °F 50% 30.03 in 10.0 mi Calm Calm - N/A   Mostly Cloudy
12:53 PM 77.0 °F 55.9 °F 48% 30.02 in 10.0 mi South 8.1 mph - N/A   Mostly Cloudy
1:53 PM 70.0 °F 53.1 °F 55% 30.01 in 10.0 mi WNW 5.8 mph - 0.00 in Rain Light Rain
2:49 PM 64.4 °F 53.6 °F 68% 30.02 in 2.0 mi West 12.7 mph 16.1 mph 0.07 in Rain Light Rain
2:53 PM 63.0 °F 54.0 °F 72% 30.01 in 5.0 mi WNW 11.5 mph - 0.07 in Rain Light Rain
3:53 PM 59.0 °F 52.0 °F 78% 30.01 in 9.0 mi WNW 12.7 mph - 0.00 in Rain Light Rain
4:53 PM 62.1 °F 53.1 °F 72% 30.00 in 10.0 mi Calm Calm - 0.00 in   Mostly Cloudy
5:53 PM 64.0 °F 55.0 °F 73% 30.01 in 10.0 mi WNW 6.9 mph - N/A   Mostly Cloudy
6:53 PM 64.9 °F 54.0 °F 68% 30.01 in 10.0 mi NW 4.6 mph - N/A   Clear
7:53 PM 64.9 °F 55.0 °F 70% 30.01 in 10.0 mi Calm Calm - N/A   Clear
8:53 PM 62.1 °F 54.0 °F 75% 30.02 in 10.0 mi Calm Calm - N/A   Clear
9:53 PM 63.0 °F 55.0 °F 75% 30.01 in 10.0 mi ENE 4.6 mph - N/A   Clear
10:53 PM 61.0 °F 54.0 °F 78% 30.01 in 9.0 mi East 4.6 mph - N/A   Clear
11:53 PM 62.1 °F 46.9 °F 58% 30.01 in 10.0 mi East 6.9 mph - N/A   Clear